Showing default

EYESAT A, 22825

Orbit data source: Space-Track

EYESAT A, 22825 is a payload satellite owned by Interfer (US) in SSO that was launched on Sun, 26 Sep 1993 UTC via an ARIANE 40 launch vehicle from the French Guiana (FRGUI). Payload-class satellites include a variety of spacecraft equipped with specific instruments for various scientific and technological missions. These include communications satellites like Starlink; space stations such as the ISS; scientific satellites like the Hubble; Earth observation satellites from companies like Planet Labs, Umbra, and HawkEye 360; GPS; miniature CubeSats for education and research; and military/defense satellites.

Loading next visibility...
Identifier
22825, 1993-061C
Orbit
SSO
Last TLE update
12 hours ago
Origin
Manufacturer
Interfer
Mission
Partially operational Commercial Communications
Bus & Motor
MICROSAT, Unknown motor
Mass
12 kg wet, 12 kg dry
Launch date (UTC)
1993-09-26 (32 years ago)
Launch vehicle
ARIANE 40
Launch site
French Guiana (FRGUI)
Object type
Payload
Rocket body
Debris
Shape & HBR
Box, 0.3 m
Radar Cross Section
0.135 m², Medium (>0.1 m² and < 1m²)

Expand to show TLE details & history

TLE from 12 hours ago
0 EYESAT A
1 22825U 93061C   25181.89627025  .00000062  00000-0  40819-4 0  9998
2 22825  98.7358 243.5572 0009286  55.6550 304.5509 14.30805355656760
Epoch: 2025-06-30T21:30Z
TLE epoch observation values (Epoch: 2025-06-30T21:30:37.749Z)
Latitude
-0.0001°
Longitude
1.70043°
Altitude
788.197 km
Speed
7.462 km/s
True Right ascension
16h 14m 13s
True Declination
0° 00' 00"
Sunlit
Object was in full shadow at epoch
Visualization orbit readout
Latitude
48.82481°
Longitude
-7.86203°
Altitude
790.064 km
Speed
7.467 km/s
Apparent Right ascension
12h 17m 10s
Apparent Declination
11° 32' 30"
Sunlit
Object is in daylight
Visualization observer readout
Local Sidereal Time
21:07:36
Azimuth
308.766° NW
Elevation
-22.356°
Doppler factor
1
Orbital elements
Apogee altitude
792.838 km
Perigee altitude
779.533 km
Semi-major axis
7,164.323 km
Eccentricity
0.00093
Inclination
98.7358°
RAAN
243.5572°
Arg. of periapsis
55.655°
True anomaly
Unknown
Mean anomaly
304.5509°
Eccentric anomaly
Unknown
Mean motion
3.57915 °/min
Orbital period
100.58 mins
BSTAR
0.000040819
Loading maneuver chart data...
Loading SW <> Apogee altitude chart data...
Loading historical data...
Loading historical data...
Loading historical data...
Loading historical data...
Loading historical data...
Loading historical data...
Loading historical data...

EYESAT A Visibility forecast

Observer location: undefined°, undefined°

Span
Click to sort rows by Start time (UTC) header in descending order
Start Az.
Max El. time (UTC)
Max El. Az.
Max El.
End time (UTC)
End Az.
9 mins2025-07-01 16:33:19.121Z28.619° NE2025-07-01 16:37:19.121Z89.389° E35.903°2025-07-01 16:42:19.121Z172.5° S
6 mins2025-07-01 18:14:19.121Z330.225° NNW2025-07-01 18:16:19.121Z301.972° NW19.833°2025-07-01 18:20:19.121Z249.427° W
8 mins2025-07-02 03:51:19.121Z151.16° SSE2025-07-02 03:54:19.121Z101.248° ESE42.109°2025-07-02 03:59:19.121Z352.768° N
|